Location: Unspecified
(0.0000°N, 0.0000°E)
Time: 22:36:23
(UTC+00:00)

Altair 2 - Pass Details

Date: 13 October 2024
Orbit: 523 x 2152 km, 81.3° (Epoch: 11 November)

Event Time Altitude Azimuth Distance (km) Brightness Sun altitude
Rises 04:36:36 0° 353° (N) 5,586 11.3 -17.2°
Reaches altitude 10° 04:39:59 10° 352° (N) 4,638 10.8 -16.4°
Maximum altitude 04:52:26 79° 267° (W) 2,102 9.1 -13.3°
Drops below altitude 10° 05:03:19 10° 181° (S) 4,082 10.8 -10.6°
Sets 05:06:07 0° 179° (S) 4,900 11.3 -9.9°
